M I D A S
Marine Information and Data Acquisition System
Tripno 1383 of the Zeeleeuw from 2007-10-17 06:45:15 to 2007-10-17 14:47:27
Back to CruiseResearch ActivitiesStationsMapUnderway DataData graphs

EquipmentUnitsComment
TimeDGPSUTC
LatitudeDGPSDM.mWGS84
LongitudeDGPSDM.mWGS84
TemperatureSBE03/SBE38deg celciusITS90
ConductivitySBE21S/mITS90
SalinitySBE21 Practical Salinity Units
ChlorophylAChelsea fluorimeterg/lCalibrated in Aceton
Missing or incorrect values are displayed as -999
Sea surface data collected by the RV Zeeleeuw from 2007-10-17 06:05:17 to 2007-10-17 15:01:04
Time Latitude Longitude Temperature Conductivity Salinity ChlorophylA
2007-10-17 06:06:22 51°13.597 2°56.093 -999 -999 -999 -999
2007-10-17 06:07:21 51°13.596 2°56.093 -999 -999 -999 -999
2007-10-17 06:08:19 51°13.597 2°56.093 -999 -999 -999 -999
2007-10-17 06:09:19 51°13.597 2°56.094 -999 -999 -999 -999
2007-10-17 06:10:19 51°13.597 2°56.094 -999 -999 -999 -999
2007-10-17 06:11:19 51°13.597 2°56.094 -999 -999 -999 -999
2007-10-17 06:12:19 51°13.598 2°56.094 -999 -999 -999 -999
2007-10-17 06:13:19 51°13.598 2°56.094 -999 -999 -999 -999
2007-10-17 06:14:19 51°13.598 2°56.094 -999 -999 -999 -999
2007-10-17 06:15:19 51°13.598 2°56.094 -999 -999 -999 -999
2007-10-17 06:16:19 51°13.598 2°56.094 -999 -999 -999 -999
2007-10-17 06:17:19 51°13.599 2°56.095 -999 -999 -999 -999
2007-10-17 06:18:19 51°13.599 2°56.095 -999 -999 -999 -999
2007-10-17 06:19:19 51°13.599 2°56.095 -999 -999 -999 -999
2007-10-17 06:20:19 51°13.596 2°56.096 -999 -999 -999 -999
2007-10-17 06:21:19 51°13.596 2°56.096 -999 -999 -999 -999
2007-10-17 06:22:19 51°13.596 2°56.097 -999 -999 -999 -999
2007-10-17 06:23:19 51°13.596 2°56.097 -999 -999 -999 -999
2007-10-17 06:24:19 51°13.597 2°56.097 -999 -999 -999 -999
2007-10-17 06:25:19 51°13.597 2°56.097 -999 -999 -999 -999
2007-10-17 06:26:19 51°13.593 2°56.097 -999 -999 -999 -999
2007-10-17 06:27:19 51°13.598 2°56.097 -999 -999 -999 -999
2007-10-17 06:28:19 51°13.598 2°56.097 -999 -999 -999 -999
2007-10-17 06:29:19 51°13.598 2°56.097 -999 -999 -999 -999
2007-10-17 06:30:19 51°13.598 2°56.096 -999 -999 -999 -999
2007-10-17 06:31:19 51°13.597 2°56.096 -999 -999 -999 -999
2007-10-17 06:32:20 51°13.598 2°56.097 -999 -999 -999 -999
2007-10-17 06:33:19 51°13.598 2°56.097 -999 -999 -999 -999
2007-10-17 06:34:19 51°13.603 2°56.097 -999 -999 -999 -999
2007-10-17 06:35:19 51°13.603 2°56.097 -999 -999 -999 -999
2007-10-17 06:36:19 51°13.598 2°56.097 -999 -999 -999 -999
2007-10-17 06:37:19 51°13.597 2°56.097 -999 -999 -999 -999
2007-10-17 06:38:19 51°13.596 2°56.097 -999 -999 -999 -999
2007-10-17 06:39:19 51°13.597 2°56.097 -999 -999 -999 -999
2007-10-17 06:40:19 51°13.596 2°56.097 -999 -999 -999 -999
2007-10-17 06:41:19 51°13.6 2°56.096 -999 -999 -999 -999
2007-10-17 06:42:19 51°13.605 2°56.096 -999 -999 -999 -999
2007-10-17 06:43:19 51°13.603 2°56.096 -999 -999 -999 -999
2007-10-17 06:44:19 51°13.602 2°56.096 -999 -999 -999 -999
2007-10-17 06:45:19 51°13.597 2°56.096 -999 -999 -999 -999
2007-10-17 06:46:19 51°13.598 2°56.096 -999 -999 -999 -999
2007-10-17 06:47:19 51°13.6 2°56.095 -999 -999 -999 -999
2007-10-17 06:48:19 51°13.598 2°56.095 -999 -999 -999 -999
2007-10-17 06:49:19 51°13.598 2°56.094 -999 -999 -999 -999
2007-10-17 06:50:19 51°13.598 2°56.093 -999 -999 -999 -999
2007-10-17 06:51:19 51°13.597 2°56.093 -999 -999 -999 -999
2007-10-17 06:52:19 51°13.597 2°56.092 -999 -999 -999 -999
2007-10-17 06:53:20 51°13.595 2°56.09 -999 -999 -999 -999
2007-10-17 06:54:19 51°13.572 2°56.121 -999 -999 -999 -999
2007-10-17 06:55:19 51°13.532 2°56.183 -999 -999 -999 -999
2007-10-17 06:56:19 51°13.532 2°56.243 -999 -999 -999 -999
2007-10-17 06:57:23 51°13.532 2°56.235 -999 -999 -999 -999
2007-10-17 06:58:21 51°13.539 2°56.239 -999 -999 -999 -999
2007-10-17 06:59:23 51°13.524 2°56.229 -999 -999 -999 -999
2007-10-17 07:00:21 51°13.562 2°56.133 -999 -999 -999 -999
2007-10-17 07:01:19 51°13.613 2°55.999 -999 -999 -999 -999
2007-10-17 07:02:19 51°13.667 2°55.859 -999 -999 -999 -999
2007-10-17 07:03:19 51°13.729 2°55.732 -999 -999 -999 -999
2007-10-17 07:04:19 51°13.817 2°55.64 -999 -999 -999 -999
2007-10-17 07:05:19 51°13.916 2°55.566 -999 -999 -999 -999
2007-10-17 07:06:19 51°14.039 2°55.484 -999 -999 -999 -999
2007-10-17 07:07:20 51°14.182 2°55.366 -999 -999 -999 -999
2007-10-17 07:08:21 51°14.314 2°55.171 -999 -999 -999 -999
2007-10-17 07:09:20 51°14.437 2°54.915 -999 -999 -999 -999
2007-10-17 07:10:19 51°14.622 2°54.773 -999 -999 -999 -999
2007-10-17 07:11:20 51°14.815 2°54.647 -999 -999 -999 -999
2007-10-17 07:12:19 51°14.981 2°54.45 -999 -999 -999 -999
2007-10-17 07:13:19 51°15.158 2°54.272 -999 -999 -999 -999
2007-10-17 07:14:19 51°15.348 2°54.13 -999 -999 -999 -999
2007-10-17 07:15:19 51°15.548 2°54.052 -999 -999 -999 -999
2007-10-17 07:16:20 51°15.75 2°53.961 -999 -999 -999 -999
2007-10-17 07:17:19 51°15.951 2°53.912 -999 -999 -999 -999
2007-10-17 07:18:20 51°16.129 2°54.049 -999 -999 -999 -999
2007-10-17 07:19:19 51°16.223 2°54.212 -999 -999 -999 -999
2007-10-17 07:20:19 51°16.252 2°54.307 -999 -999 -999 -999
2007-10-17 07:21:18 51°16.264 2°54.323 -999 -999 -999 -999
2007-10-17 07:22:19 51°16.273 2°54.333 -999 -999 -999 -999
2007-10-17 07:23:20 51°16.28 2°54.339 -999 -999 -999 -999
2007-10-17 07:24:19 51°16.285 2°54.343 -999 -999 -999 -999
2007-10-17 07:25:20 51°16.291 2°54.348 -999 -999 -999 -999
2007-10-17 07:26:19 51°16.296 2°54.35 -999 -999 -999 -999
2007-10-17 07:27:20 51°16.302 2°54.352 -999 -999 -999 -999
2007-10-17 07:28:19 51°16.308 2°54.354 -999 -999 -999 -999
2007-10-17 07:29:20 51°16.314 2°54.357 -999 -999 -999 -999
2007-10-17 07:30:18 51°16.321 2°54.36 -999 -999 -999 -999
2007-10-17 07:31:19 51°16.322 2°54.393 -999 -999 -999 -999
2007-10-17 07:32:20 51°16.377 2°54.433 -999 -999 -999 -999
2007-10-17 07:33:19 51°16.473 2°54.32 -999 -999 -999 -999
2007-10-17 07:34:20 51°16.586 2°54.054 -999 -999 -999 -999
2007-10-17 07:35:19 51°16.7 2°53.784 -999 -999 -999 -999
2007-10-17 07:36:20 51°16.822 2°53.51 -999 -999 -999 -999
2007-10-17 07:37:19 51°16.934 2°53.242 -999 -999 -999 -999
2007-10-17 07:38:20 51°17.055 2°52.977 -999 -999 -999 -999
2007-10-17 07:39:19 51°17.178 2°52.721 -999 -999 -999 -999
2007-10-17 07:40:20 51°17.305 2°52.454 -999 -999 -999 -999
2007-10-17 07:41:20 51°17.427 2°52.188 -999 -999 -999 -999
2007-10-17 07:42:20 51°17.546 2°51.929 -999 -999 -999 -999
2007-10-17 07:43:20 51°17.655 2°51.709 -999 -999 -999 -999
2007-10-17 07:44:20 51°17.739 2°51.533 -999 -999 -999 -999
2007-10-17 07:45:20 51°17.813 2°51.379 -999 -999 -999 -999
2007-10-17 07:46:20 51°17.886 2°51.227 -999 -999 -999 -999
2007-10-17 07:47:20 51°17.961 2°51.072 -999 -999 -999 -999
2007-10-17 07:48:20 51°18.054 2°50.88 -999 -999 -999 -999
2007-10-17 07:49:19 51°18.177 2°50.747 -999 -999 -999 -999
2007-10-17 07:50:20 51°18.327 2°50.762 -999 -999 -999 -999
2007-10-17 07:51:19 51°18.432 2°50.888 -999 -999 -999 -999
2007-10-17 07:52:20 51°18.478 2°50.988 -999 -999 -999 -999
2007-10-17 07:53:19 51°18.507 2°51.034 -999 -999 -999 -999
2007-10-17 07:54:20 51°18.524 2°51.038 -999 -999 -999 -999
2007-10-17 07:55:19 51°18.541 2°51.039 -999 -999 -999 -999
2007-10-17 07:56:20 51°18.559 2°51.037 -999 -999 -999 -999
2007-10-17 07:57:20 51°18.577 2°51.034 -999 -999 -999 -999
2007-10-17 07:58:20 51°18.595 2°51.028 -999 -999 -999 -999
2007-10-17 07:59:20 51°18.612 2°51.019 -999 -999 -999 -999
2007-10-17 08:00:19 51°18.625 2°51.006 -999 -999 -999 -999
2007-10-17 08:01:20 51°18.635 2°50.994 -999 -999 -999 -999
2007-10-17 08:02:20 51°18.677 2°50.949 -999 -999 -999 -999
2007-10-17 08:03:20 51°18.821 2°50.815 -999 -999 -999 -999
2007-10-17 08:04:18 51°19.012 2°50.732 -999 -999 -999 -999
2007-10-17 08:05:20 51°19.217 2°50.638 -999 -999 -999 -999
2007-10-17 08:06:19 51°19.412 2°50.549 -999 -999 -999 -999
2007-10-17 08:07:20 51°19.614 2°50.452 -999 -999 -999 -999
2007-10-17 08:08:20 51°19.813 2°50.356 -999 -999 -999 -999
2007-10-17 08:09:20 51°20.013 2°50.261 -999 -999 -999 -999
2007-10-17 08:10:20 51°20.214 2°50.167 -999 -999 -999 -999
2007-10-17 08:11:19 51°20.41 2°50.076 -999 -999 -999 -999
2007-10-17 08:12:20 51°20.614 2°49.98 -999 -999 -999 -999
2007-10-17 08:13:20 51°20.815 2°49.889 -999 -999 -999 -999
2007-10-17 08:14:20 51°21.017 2°49.796 -999 -999 -999 -999
2007-10-17 08:15:20 51°21.222 2°49.707 -999 -999 -999 -999
2007-10-17 08:16:20 51°21.428 2°49.618 -999 -999 -999 -999
2007-10-17 08:17:20 51°21.635 2°49.528 -999 -999 -999 -999
2007-10-17 08:18:18 51°21.837 2°49.447 -999 -999 -999 -999
2007-10-17 08:19:20 51°22.047 2°49.352 -999 -999 -999 -999
2007-10-17 08:20:18 51°22.241 2°49.265 -999 -999 -999 -999
2007-10-17 08:21:19 51°22.446 2°49.175 -999 -999 -999 -999
2007-10-17 08:22:20 51°22.651 2°49.085 -999 -999 -999 -999
2007-10-17 08:23:20 51°22.856 2°49.025 -999 -999 -999 -999
2007-10-17 08:24:20 51°23.06 2°48.969 -999 -999 -999 -999
2007-10-17 08:25:19 51°23.262 2°48.909 -999 -999 -999 -999
2007-10-17 08:26:19 51°23.466 2°48.846 -999 -999 -999 -999
2007-10-17 08:27:20 51°23.673 2°48.783 -999 -999 -999 -999
2007-10-17 08:28:20 51°23.876 2°48.726 -999 -999 -999 -999
2007-10-17 08:29:20 51°24.081 2°48.663 -999 -999 -999 -999
2007-10-17 08:30:20 51°24.284 2°48.597 -999 -999 -999 -999
2007-10-17 08:31:20 51°24.489 2°48.534 -999 -999 -999 -999
2007-10-17 08:32:20 51°24.695 2°48.473 -999 -999 -999 -999
2007-10-17 08:33:20 51°24.902 2°48.42 -999 -999 -999 -999
2007-10-17 08:34:20 51°25.111 2°48.383 -999 -999 -999 -999
2007-10-17 08:35:20 51°25.323 2°48.352 -999 -999 -999 -999
2007-10-17 08:36:18 51°25.526 2°48.32 -999 -999 -999 -999
2007-10-17 08:37:20 51°25.716 2°48.282 -999 -999 -999 -999
2007-10-17 08:38:18 51°25.826 2°48.311 -999 -999 -999 -999
2007-10-17 08:39:20 51°25.908 2°48.389 -999 -999 -999 -999
2007-10-17 08:40:20 51°25.976 2°48.451 -999 -999 -999 -999
2007-10-17 08:41:20 51°26.005 2°48.503 -999 -999 -999 -999
2007-10-17 08:42:20 51°26.015 2°48.512 -999 -999 -999 -999
2007-10-17 08:43:20 51°26.022 2°48.521 -999 -999 -999 -999
2007-10-17 08:44:20 51°26.027 2°48.525 -999 -999 -999 -999
2007-10-17 08:45:20 51°26.033 2°48.528 -999 -999 -999 -999
2007-10-17 08:46:20 51°26.039 2°48.53 -999 -999 -999 -999
2007-10-17 08:47:20 51°26.047 2°48.531 -999 -999 -999 -999
2007-10-17 08:48:20 51°26.055 2°48.532 -999 -999 -999 -999
2007-10-17 08:49:20 51°26.063 2°48.534 -999 -999 -999 -999
2007-10-17 08:50:20 51°26.071 2°48.535 -999 -999 -999 -999
2007-10-17 08:51:20 51°26.08 2°48.536 -999 -999 -999 -999
2007-10-17 08:52:20 51°26.088 2°48.538 -999 -999 -999 -999
2007-10-17 08:53:19 51°26.094 2°48.541 -999 -999 -999 -999
2007-10-17 08:54:19 51°26.1 2°48.545 -999 -999 -999 -999
2007-10-17 08:55:20 51°26.106 2°48.549 -999 -999 -999 -999
2007-10-17 08:56:20 51°26.113 2°48.553 -999 -999 -999 -999
2007-10-17 08:57:20 51°26.112 2°48.602 -999 -999 -999 -999
2007-10-17 08:58:20 51°26.16 2°48.636 -999 -999 -999 -999
2007-10-17 08:59:20 51°26.298 2°48.586 -999 -999 -999 -999
2007-10-17 09:00:20 51°26.498 2°48.528 -999 -999 -999 -999
2007-10-17 09:01:20 51°26.7 2°48.465 -999 -999 -999 -999
2007-10-17 09:02:20 51°26.9 2°48.413 -999 -999 -999 -999
2007-10-17 09:03:18 51°27.096 2°48.368 -999 -999 -999 -999
2007-10-17 09:04:20 51°27.303 2°48.322 -999 -999 -999 -999
2007-10-17 09:05:20 51°27.503 2°48.275 -999 -999 -999 -999
2007-10-17 09:06:20 51°27.701 2°48.22 -999 -999 -999 -999
2007-10-17 09:07:20 51°27.9 2°48.16 -999 -999 -999 -999
2007-10-17 09:08:20 51°28.097 2°48.101 -999 -999 -999 -999
2007-10-17 09:09:20 51°28.29 2°48.044 -999 -999 -999 -999
2007-10-17 09:10:20 51°28.481 2°47.985 -999 -999 -999 -999
2007-10-17 09:11:20 51°28.673 2°47.932 -999 -999 -999 -999
2007-10-17 09:12:20 51°28.864 2°47.88 -999 -999 -999 -999
2007-10-17 09:13:20 51°29.054 2°47.831 -999 -999 -999 -999
2007-10-17 09:14:20 51°29.242 2°47.78 -999 -999 -999 -999
2007-10-17 09:15:20 51°29.429 2°47.726 -999 -999 -999 -999
2007-10-17 09:16:20 51°29.617 2°47.673 -999 -999 -999 -999
2007-10-17 09:17:20 51°29.802 2°47.619 -999 -999 -999 -999
2007-10-17 09:18:20 51°29.987 2°47.567 -999 -999 -999 -999
2007-10-17 09:19:20 51°30.172 2°47.511 -999 -999 -999 -999
2007-10-17 09:20:20 51°30.356 2°47.453 -999 -999 -999 -999
2007-10-17 09:21:20 51°30.54 2°47.401 -999 -999 -999 -999
2007-10-17 09:22:20 51°30.725 2°47.345 -999 -999 -999 -999
2007-10-17 09:23:20 51°30.908 2°47.288 -999 -999 -999 -999
2007-10-17 09:24:20 51°31.092 2°47.231 -999 -999 -999 -999
2007-10-17 09:25:20 51°31.275 2°47.174 -999 -999 -999 -999
2007-10-17 09:26:20 51°31.459 2°47.124 -999 -999 -999 -999
2007-10-17 09:27:20 51°31.644 2°47.091 -999 -999 -999 -999
2007-10-17 09:28:20 51°31.829 2°47.055 -999 -999 -999 -999
2007-10-17 09:29:20 51°32.015 2°47.019 -999 -999 -999 -999
2007-10-17 09:30:20 51°32.201 2°46.986 -999 -999 -999 -999
2007-10-17 09:31:20 51°32.385 2°46.948 -999 -999 -999 -999
2007-10-17 09:32:20 51°32.57 2°46.909 -999 -999 -999 -999
2007-10-17 09:33:20 51°32.754 2°46.872 -999 -999 -999 -999
2007-10-17 09:34:20 51°32.938 2°46.838 -999 -999 -999 -999
2007-10-17 09:35:20 51°33.124 2°46.806 -999 -999 -999 -999
2007-10-17 09:36:20 51°33.309 2°46.788 -999 -999 -999 -999
2007-10-17 09:37:20 51°33.494 2°46.773 -999 -999 -999 -999
2007-10-17 09:38:20 51°33.678 2°46.759 -999 -999 -999 -999
2007-10-17 09:39:20 51°33.859 2°46.743 -999 -999 -999 -999
2007-10-17 09:40:20 51°34.041 2°46.734 -999 -999 -999 -999
2007-10-17 09:41:20 51°34.218 2°46.779 -999 -999 -999 -999
2007-10-17 09:42:20 51°34.322 2°46.86 -999 -999 -999 -999
2007-10-17 09:43:20 51°34.374 2°46.909 -999 -999 -999 -999
2007-10-17 09:44:20 51°34.424 2°46.959 -999 -999 -999 -999
2007-10-17 09:45:20 51°34.476 2°47.013 -999 -999 -999 -999
2007-10-17 09:46:20 51°34.533 2°47.059 -999 -999 -999 -999
2007-10-17 09:47:20 51°34.589 2°47.114 -999 -999 -999 -999
2007-10-17 09:48:20 51°34.644 2°47.174 -999 -999 -999 -999
2007-10-17 09:49:20 51°34.695 2°47.237 -999 -999 -999 -999
2007-10-17 09:50:20 51°34.748 2°47.289 -999 -999 -999 -999
2007-10-17 09:51:20 51°34.795 2°47.35 -999 -999 -999 -999
2007-10-17 09:52:20 51°34.83 2°47.4 -999 -999 -999 -999
2007-10-17 09:53:19 51°34.824 2°47.422 -999 -999 -999 -999
2007-10-17 09:54:20 51°34.801 2°47.43 -999 -999 -999 -999
2007-10-17 09:55:20 51°34.769 2°47.427 -999 -999 -999 -999
2007-10-17 09:56:20 51°34.735 2°47.416 -999 -999 -999 -999
2007-10-17 09:57:20 51°34.701 2°47.402 -999 -999 -999 -999
2007-10-17 09:58:20 51°34.665 2°47.387 -999 -999 -999 -999
2007-10-17 09:59:20 51°34.635 2°47.396 -999 -999 -999 -999
2007-10-17 10:00:20 51°34.656 2°47.428 -999 -999 -999 -999
2007-10-17 10:01:20 51°34.667 2°47.322 -999 -999 -999 -999
2007-10-17 10:02:20 51°34.686 2°47.043 -999 -999 -999 -999
2007-10-17 10:03:20 51°34.737 2°46.74 -999 -999 -999 -999
2007-10-17 10:04:20 51°34.79 2°46.442 -999 -999 -999 -999
2007-10-17 10:05:20 51°34.846 2°46.143 -999 -999 -999 -999
2007-10-17 10:06:20 51°34.903 2°45.96 -999 -999 -999 -999
2007-10-17 10:07:20 51°34.939 2°45.887 -999 -999 -999 -999
2007-10-17 10:08:20 51°34.996 2°45.836 -999 -999 -999 -999
2007-10-17 10:09:20 51°35.027 2°45.783 -999 -999 -999 -999
2007-10-17 10:10:20 51°35.014 2°45.756 -999 -999 -999 -999
2007-10-17 10:11:22 51°34.978 2°45.729 -999 -999 -999 -999
2007-10-17 10:12:20 51°34.942 2°45.694 -999 -999 -999 -999
2007-10-17 10:13:20 51°34.911 2°45.658 -999 -999 -999 -999
2007-10-17 10:14:20 51°34.88 2°45.632 -999 -999 -999 -999
2007-10-17 10:15:20 51°34.85 2°45.611 -999 -999 -999 -999
2007-10-17 10:16:20 51°34.818 2°45.604 -999 -999 -999 -999
2007-10-17 10:17:20 51°34.764 2°45.636 -999 -999 -999 -999
2007-10-17 10:18:20 51°34.662 2°45.589 -999 -999 -999 -999
2007-10-17 10:19:21 51°34.463 2°45.53 -999 -999 -999 -999
2007-10-17 10:20:20 51°34.245 2°45.477 -999 -999 -999 -999
2007-10-17 10:21:20 51°34.019 2°45.413 -999 -999 -999 -999
2007-10-17 10:22:20 51°33.793 2°45.347 -999 -999 -999 -999
2007-10-17 10:23:20 51°33.569 2°45.282 -999 -999 -999 -999
2007-10-17 10:24:20 51°33.345 2°45.215 -999 -999 -999 -999
2007-10-17 10:25:20 51°33.12 2°45.142 -999 -999 -999 -999
2007-10-17 10:26:20 51°32.898 2°45.074 -999 -999 -999 -999
2007-10-17 10:27:20 51°32.677 2°45.007 -999 -999 -999 -999
2007-10-17 10:28:20 51°32.454 2°44.94 -999 -999 -999 -999
2007-10-17 10:29:20 51°32.231 2°44.867 -999 -999 -999 -999
2007-10-17 10:30:20 51°32.006 2°44.793 -999 -999 -999 -999
2007-10-17 10:31:20 51°31.785 2°44.722 -999 -999 -999 -999
2007-10-17 10:32:20 51°31.563 2°44.64 -999 -999 -999 -999
2007-10-17 10:33:20 51°31.342 2°44.552 -999 -999 -999 -999
2007-10-17 10:34:20 51°31.123 2°44.467 -999 -999 -999 -999
2007-10-17 10:35:20 51°30.904 2°44.371 -999 -999 -999 -999
2007-10-17 10:36:20 51°30.685 2°44.282 -999 -999 -999 -999
2007-10-17 10:37:20 51°30.465 2°44.179 -999 -999 -999 -999
2007-10-17 10:38:20 51°30.246 2°44.073 -999 -999 -999 -999
2007-10-17 10:39:20 51°30.028 2°43.974 -999 -999 -999 -999
2007-10-17 10:40:20 51°29.811 2°43.875 -999 -999 -999 -999
2007-10-17 10:41:20 51°29.594 2°43.774 -999 -999 -999 -999
2007-10-17 10:42:20 51°29.374 2°43.677 -999 -999 -999 -999
2007-10-17 10:43:20 51°29.154 2°43.572 -999 -999 -999 -999
2007-10-17 10:44:20 51°28.933 2°43.469 -999 -999 -999 -999
2007-10-17 10:45:20 51°28.712 2°43.376 -999 -999 -999 -999
2007-10-17 10:46:20 51°28.496 2°43.283 -999 -999 -999 -999
2007-10-17 10:47:20 51°28.279 2°43.193 -999 -999 -999 -999
2007-10-17 10:48:20 51°28.065 2°43.098 -999 -999 -999 -999
2007-10-17 10:49:20 51°27.848 2°42.996 -999 -999 -999 -999
2007-10-17 10:50:20 51°27.633 2°42.907 -999 -999 -999 -999
2007-10-17 10:51:20 51°27.418 2°42.81 -999 -999 -999 -999
2007-10-17 10:52:20 51°27.202 2°42.711 -999 -999 -999 -999
2007-10-17 10:53:20 51°26.984 2°42.609 -999 -999 -999 -999
2007-10-17 10:54:20 51°26.769 2°42.51 -999 -999 -999 -999
2007-10-17 10:55:20 51°26.554 2°42.418 -999 -999 -999 -999
2007-10-17 10:56:20 51°26.341 2°42.32 -999 -999 -999 -999
2007-10-17 10:57:21 51°26.119 2°42.223 -999 -999 -999 -999
2007-10-17 10:58:20 51°25.909 2°42.117 -999 -999 -999 -999
2007-10-17 10:59:20 51°25.692 2°42.022 -999 -999 -999 -999
2007-10-17 11:00:20 51°25.474 2°41.926 -999 -999 -999 -999
2007-10-17 11:01:20 51°25.26 2°41.83 -999 -999 -999 -999
2007-10-17 11:02:20 51°25.043 2°41.741 -999 -999 -999 -999
2007-10-17 11:03:20 51°24.827 2°41.645 -999 -999 -999 -999
2007-10-17 11:04:20 51°24.608 2°41.551 -999 -999 -999 -999
2007-10-17 11:05:20 51°24.39 2°41.462 -999 -999 -999 -999
2007-10-17 11:06:20 51°24.173 2°41.371 -999 -999 -999 -999
2007-10-17 11:07:20 51°23.955 2°41.283 -999 -999 -999 -999
2007-10-17 11:08:20 51°23.739 2°41.192 -999 -999 -999 -999
2007-10-17 11:09:20 51°23.524 2°41.109 -999 -999 -999 -999
2007-10-17 11:10:20 51°23.309 2°41.022 -999 -999 -999 -999
2007-10-17 11:11:20 51°23.097 2°40.932 -999 -999 -999 -999
2007-10-17 11:12:20 51°22.884 2°40.848 -999 -999 -999 -999
2007-10-17 11:13:20 51°22.669 2°40.757 -999 -999 -999 -999
2007-10-17 11:14:20 51°22.453 2°40.668 -999 -999 -999 -999
2007-10-17 11:15:20 51°22.236 2°40.586 -999 -999 -999 -999
2007-10-17 11:16:20 51°22.021 2°40.487 -999 -999 -999 -999
2007-10-17 11:17:20 51°21.807 2°40.38 -999 -999 -999 -999
2007-10-17 11:18:20 51°21.59 2°40.27 -999 -999 -999 -999
2007-10-17 11:19:21 51°21.373 2°40.171 -999 -999 -999 -999
2007-10-17 11:20:20 51°21.161 2°40.082 -999 -999 -999 -999
2007-10-17 11:21:20 51°20.95 2°39.965 -999 -999 -999 -999
2007-10-17 11:22:20 51°20.742 2°39.832 -999 -999 -999 -999
2007-10-17 11:23:20 51°20.532 2°39.712 -999 -999 -999 -999
2007-10-17 11:24:20 51°20.323 2°39.59 -999 -999 -999 -999
2007-10-17 11:25:20 51°20.114 2°39.462 -999 -999 -999 -999
2007-10-17 11:26:20 51°19.905 2°39.336 -999 -999 -999 -999
2007-10-17 11:27:20 51°19.695 2°39.214 -999 -999 -999 -999
2007-10-17 11:28:20 51°19.487 2°39.091 -999 -999 -999 -999
2007-10-17 11:29:20 51°19.273 2°38.965 -999 -999 -999 -999
2007-10-17 11:30:20 51°19.06 2°38.832 -999 -999 -999 -999
2007-10-17 11:31:20 51°18.846 2°38.7 -999 -999 -999 -999
2007-10-17 11:32:20 51°18.635 2°38.568 -999 -999 -999 -999
2007-10-17 11:33:20 51°18.422 2°38.44 -999 -999 -999 -999
2007-10-17 11:34:20 51°18.21 2°38.319 -999 -999 -999 -999
2007-10-17 11:35:20 51°18.001 2°38.196 -999 -999 -999 -999
2007-10-17 11:36:20 51°17.79 2°38.076 -999 -999 -999 -999
2007-10-17 11:37:20 51°17.58 2°37.953 -999 -999 -999 -999
2007-10-17 11:38:20 51°17.371 2°37.831 -999 -999 -999 -999
2007-10-17 11:39:20 51°17.16 2°37.698 -999 -999 -999 -999
2007-10-17 11:40:20 51°16.949 2°37.578 -999 -999 -999 -999
2007-10-17 11:41:20 51°16.741 2°37.447 -999 -999 -999 -999
2007-10-17 11:42:20 51°16.532 2°37.316 -999 -999 -999 -999
2007-10-17 11:43:20 51°16.34 2°37.137 -999 -999 -999 -999
2007-10-17 11:44:20 51°16.194 2°36.884 -999 -999 -999 -999
2007-10-17 11:45:20 51°16.137 2°36.656 -999 -999 -999 -999
2007-10-17 11:46:20 51°16.169 2°36.528 -999 -999 -999 -999
2007-10-17 11:47:20 51°16.24 2°36.511 -999 -999 -999 -999
2007-10-17 11:48:20 51°16.338 2°36.522 -999 -999 -999 -999
2007-10-17 11:49:21 51°16.43 2°36.586 -999 -999 -999 -999
2007-10-17 11:50:20 51°16.509 2°36.679 -999 -999 -999 -999
2007-10-17 11:51:20 51°16.575 2°36.75 -999 -999 -999 -999
2007-10-17 11:52:20 51°16.596 2°36.797 -999 -999 -999 -999
2007-10-17 11:53:20 51°16.593 2°36.808 -999 -999 -999 -999
2007-10-17 11:54:20 51°16.57 2°36.803 -999 -999 -999 -999
2007-10-17 11:55:20 51°16.538 2°36.791 -999 -999 -999 -999
2007-10-17 11:56:20 51°16.506 2°36.773 -999 -999 -999 -999
2007-10-17 11:57:20 51°16.474 2°36.754 -999 -999 -999 -999
2007-10-17 11:58:20 51°16.444 2°36.737 -999 -999 -999 -999
2007-10-17 11:59:20 51°16.413 2°36.723 -999 -999 -999 -999
2007-10-17 12:00:20 51°16.385 2°36.711 -999 -999 -999 -999
2007-10-17 12:01:20 51°16.358 2°36.7 -999 -999 -999 -999
2007-10-17 12:02:20 51°16.331 2°36.689 -999 -999 -999 -999
2007-10-17 12:03:20 51°16.307 2°36.718 -999 -999 -999 -999
2007-10-17 12:04:20 51°16.237 2°36.753 -999 -999 -999 -999
2007-10-17 12:05:20 51°16.111 2°36.685 -999 -999 -999 -999
2007-10-17 12:06:19 51°15.932 2°36.601 -999 -999 -999 -999
2007-10-17 12:07:20 51°15.717 2°36.507 -999 -999 -999 -999
2007-10-17 12:08:20 51°15.507 2°36.416 -999 -999 -999 -999
2007-10-17 12:09:21 51°15.289 2°36.402 -999 -999 -999 -999
2007-10-17 12:10:21 51°15.073 2°36.393 -999 -999 -999 -999
2007-10-17 12:11:21 51°14.859 2°36.369 -999 -999 -999 -999
2007-10-17 12:12:20 51°14.66 2°36.44 -999 -999 -999 -999
2007-10-17 12:13:20 51°14.486 2°36.611 -999 -999 -999 -999
2007-10-17 12:14:21 51°14.381 2°36.878 -999 -999 -999 -999
2007-10-17 12:15:20 51°14.312 2°37.167 -999 -999 -999 -999
2007-10-17 12:16:20 51°14.234 2°37.457 -999 -999 -999 -999
2007-10-17 12:17:20 51°14.179 2°37.755 -999 -999 -999 -999
2007-10-17 12:18:20 51°14.119 2°38.052 -999 -999 -999 -999
2007-10-17 12:19:20 51°14.08 2°38.352 -999 -999 -999 -999
2007-10-17 12:20:19 51°14.039 2°38.655 -999 -999 -999 -999
2007-10-17 12:21:19 51°13.957 2°38.933 -999 -999 -999 -999
2007-10-17 12:22:19 51°13.754 2°38.951 -999 -999 -999 -999
2007-10-17 12:23:19 51°13.55 2°38.848 -999 -999 -999 -999
2007-10-17 12:24:19 51°13.354 2°38.709 -999 -999 -999 -999
2007-10-17 12:25:20 51°13.157 2°38.559 -999 -999 -999 -999
2007-10-17 12:26:20 51°12.956 2°38.422 -999 -999 -999 -999
2007-10-17 12:27:20 51°12.758 2°38.276 -999 -999 -999 -999
2007-10-17 12:28:20 51°12.558 2°38.145 -999 -999 -999 -999
2007-10-17 12:29:20 51°12.361 2°38.009 -999 -999 -999 -999
2007-10-17 12:30:20 51°12.165 2°37.872 -999 -999 -999 -999
2007-10-17 12:31:19 51°11.975 2°37.734 -999 -999 -999 -999
2007-10-17 12:32:19 51°11.776 2°37.603 -999 -999 -999 -999
2007-10-17 12:33:19 51°11.576 2°37.471 -999 -999 -999 -999
2007-10-17 12:34:19 51°11.379 2°37.349 -999 -999 -999 -999
2007-10-17 12:35:20 51°11.185 2°37.202 -999 -999 -999 -999
2007-10-17 12:36:20 51°10.992 2°37.057 -999 -999 -999 -999
2007-10-17 12:37:20 51°10.802 2°36.913 -999 -999 -999 -999
2007-10-17 12:38:20 51°10.612 2°36.776 -999 -999 -999 -999
2007-10-17 12:39:20 51°10.421 2°36.643 -999 -999 -999 -999
2007-10-17 12:40:20 51°10.221 2°36.691 -999 -999 -999 -999
2007-10-17 12:41:20 51°10.094 2°36.938 -999 -999 -999 -999
2007-10-17 12:42:20 51°10.08 2°37.256 -999 -999 -999 -999
2007-10-17 12:43:20 51°10.1 2°37.577 -999 -999 -999 -999
2007-10-17 12:44:20 51°10.118 2°37.899 -999 -999 -999 -999
2007-10-17 12:45:20 51°10.143 2°38.216 -999 -999 -999 -999
2007-10-17 12:46:20 51°10.161 2°38.535 -999 -999 -999 -999
2007-10-17 12:47:20 51°10.188 2°38.853 -999 -999 -999 -999
2007-10-17 12:48:20 51°10.229 2°39.164 -999 -999 -999 -999
2007-10-17 12:49:20 51°10.275 2°39.476 -999 -999 -999 -999
2007-10-17 12:50:20 51°10.333 2°39.783 -999 -999 -999 -999
2007-10-17 12:51:20 51°10.401 2°40.082 -999 -999 -999 -999
2007-10-17 12:52:20 51°10.473 2°40.383 -999 -999 -999 -999
2007-10-17 12:53:20 51°10.545 2°40.683 -999 -999 -999 -999
2007-10-17 12:54:20 51°10.618 2°40.982 -999 -999 -999 -999
2007-10-17 12:55:20 51°10.713 2°41.264 -999 -999 -999 -999
2007-10-17 12:56:20 51°10.815 2°41.54 -999 -999 -999 -999
2007-10-17 12:57:20 51°10.92 2°41.778 -999 -999 -999 -999
2007-10-17 12:58:20 51°10.996 2°41.932 -999 -999 -999 -999
2007-10-17 12:59:20 51°11.042 2°42.012 -999 -999 -999 -999
2007-10-17 13:00:20 51°11.058 2°42.052 -999 -999 -999 -999
2007-10-17 13:01:19 51°11.1 2°42.079 -999 -999 -999 -999
2007-10-17 13:02:20 51°11.112 2°42.096 -999 -999 -999 -999
2007-10-17 13:03:19 51°11.103 2°42.12 -999 -999 -999 -999
2007-10-17 13:04:19 51°11.09 2°42.143 -999 -999 -999 -999
2007-10-17 13:05:20 51°11.075 2°42.163 -999 -999 -999 -999
2007-10-17 13:06:20 51°11.059 2°42.183 -999 -999 -999 -999
2007-10-17 13:07:20 51°11.045 2°42.215 -999 -999 -999 -999
2007-10-17 13:08:20 51°11.012 2°42.287 -999 -999 -999 -999
2007-10-17 13:09:20 51°10.959 2°42.302 -999 -999 -999 -999
2007-10-17 13:10:19 51°10.926 2°42.298 -999 -999 -999 -999
2007-10-17 13:11:20 51°10.902 2°42.297 -999 -999 -999 -999
2007-10-17 13:12:19 51°10.866 2°42.254 -999 -999 -999 -999
2007-10-17 13:13:19 51°10.844 2°42.182 -999 -999 -999 -999
2007-10-17 13:14:19 51°10.841 2°42.099 -999 -999 -999 -999
2007-10-17 13:15:19 51°10.826 2°42.011 -999 -999 -999 -999
2007-10-17 13:16:19 51°10.805 2°41.928 -999 -999 -999 -999
2007-10-17 13:17:19 51°10.776 2°41.866 -999 -999 -999 -999
2007-10-17 13:18:19 51°10.744 2°41.81 -999 -999 -999 -999
2007-10-17 13:19:19 51°10.71 2°41.754 -999 -999 -999 -999
2007-10-17 13:20:19 51°10.679 2°41.687 -999 -999 -999 -999
2007-10-17 13:21:20 51°10.655 2°41.61 -999 -999 -999 -999
2007-10-17 13:22:20 51°10.633 2°41.533 -999 -999 -999 -999
2007-10-17 13:23:20 51°10.609 2°41.46 -999 -999 -999 -999
2007-10-17 13:24:20 51°10.584 2°41.38 -999 -999 -999 -999
2007-10-17 13:25:20 51°10.553 2°41.306 -999 -999 -999 -999
2007-10-17 13:26:20 51°10.529 2°41.23 -999 -999 -999 -999
2007-10-17 13:27:20 51°10.507 2°41.151 -999 -999 -999 -999
2007-10-17 13:28:20 51°10.483 2°41.073 -999 -999 -999 -999
2007-10-17 13:29:20 51°10.459 2°41 -999 -999 -999 -999
2007-10-17 13:30:20 51°10.433 2°40.926 -999 -999 -999 -999
2007-10-17 13:31:20 51°10.406 2°40.852 -999 -999 -999 -999
2007-10-17 13:32:20 51°10.38 2°40.783 -999 -999 -999 -999
2007-10-17 13:33:20 51°10.356 2°40.714 -999 -999 -999 -999
2007-10-17 13:34:20 51°10.334 2°40.641 -999 -999 -999 -999
2007-10-17 13:35:20 51°10.319 2°40.57 -999 -999 -999 -999
2007-10-17 13:36:20 51°10.308 2°40.502 -999 -999 -999 -999
2007-10-17 13:37:20 51°10.299 2°40.436 -999 -999 -999 -999
2007-10-17 13:38:20 51°10.293 2°40.363 -999 -999 -999 -999
2007-10-17 13:39:20 51°10.286 2°40.292 -999 -999 -999 -999
2007-10-17 13:40:20 51°10.278 2°40.217 -999 -999 -999 -999
2007-10-17 13:41:19 51°10.27 2°40.147 -999 -999 -999 -999
2007-10-17 13:42:20 51°10.261 2°40.073 -999 -999 -999 -999
2007-10-17 13:43:20 51°10.251 2°39.996 -999 -999 -999 -999
2007-10-17 13:44:20 51°10.243 2°39.916 -999 -999 -999 -999
2007-10-17 13:45:20 51°10.243 2°39.846 -999 -999 -999 -999
2007-10-17 13:46:20 51°10.249 2°39.781 -999 -999 -999 -999
2007-10-17 13:47:20 51°10.26 2°39.717 -999 -999 -999 -999
2007-10-17 13:48:20 51°10.269 2°39.659 -999 -999 -999 -999
2007-10-17 13:49:20 51°10.288 2°39.604 -999 -999 -999 -999
2007-10-17 13:50:20 51°10.331 2°39.575 -999 -999 -999 -999
2007-10-17 13:51:19 51°10.371 2°39.631 -999 -999 -999 -999
2007-10-17 13:52:19 51°10.38 2°39.689 -999 -999 -999 -999
2007-10-17 13:53:19 51°10.379 2°39.735 -999 -999 -999 -999
2007-10-17 13:54:19 51°10.37 2°39.774 -999 -999 -999 -999
2007-10-17 13:55:19 51°10.36 2°39.808 -999 -999 -999 -999
2007-10-17 13:56:20 51°10.356 2°39.87 -999 -999 -999 -999
2007-10-17 13:57:20 51°10.373 2°39.99 -999 -999 -999 -999
2007-10-17 13:58:20 51°10.404 2°40.194 -999 -999 -999 -999
2007-10-17 13:59:20 51°10.437 2°40.415 -999 -999 -999 -999
2007-10-17 14:00:20 51°10.472 2°40.639 -999 -999 -999 -999
2007-10-17 14:01:20 51°10.514 2°40.888 -999 -999 -999 -999
2007-10-17 14:02:20 51°10.566 2°41.177 -999 -999 -999 -999
2007-10-17 14:03:21 51°10.625 2°41.501 -999 -999 -999 -999
2007-10-17 14:04:20 51°10.685 2°41.831 -999 -999 -999 -999
2007-10-17 14:05:20 51°10.746 2°42.17 -999 -999 -999 -999
2007-10-17 14:06:21 51°10.815 2°42.508 -999 -999 -999 -999
2007-10-17 14:07:20 51°10.886 2°42.833 -999 -999 -999 -999
2007-10-17 14:08:20 51°10.959 2°43.163 -999 -999 -999 -999
2007-10-17 14:09:20 51°11.03 2°43.493 -999 -999 -999 -999
2007-10-17 14:10:20 51°11.099 2°43.823 -999 -999 -999 -999
2007-10-17 14:11:20 51°11.169 2°44.153 -999 -999 -999 -999
2007-10-17 14:12:20 51°11.239 2°44.481 -999 -999 -999 -999
2007-10-17 14:13:20 51°11.321 2°44.799 -999 -999 -999 -999
2007-10-17 14:14:20 51°11.406 2°45.119 -999 -999 -999 -999
2007-10-17 14:15:20 51°11.49 2°45.439 -999 -999 -999 -999
2007-10-17 14:16:20 51°11.574 2°45.761 -999 -999 -999 -999
2007-10-17 14:17:20 51°11.657 2°46.082 -999 -999 -999 -999
2007-10-17 14:18:20 51°11.74 2°46.402 -999 -999 -999 -999
2007-10-17 14:19:20 51°11.825 2°46.724 -999 -999 -999 -999
2007-10-17 14:20:20 51°11.911 2°47.045 -999 -999 -999 -999
2007-10-17 14:21:20 51°11.996 2°47.363 -999 -999 -999 -999
2007-10-17 14:22:20 51°12.095 2°47.674 -999 -999 -999 -999
2007-10-17 14:23:20 51°12.207 2°47.973 -999 -999 -999 -999
2007-10-17 14:24:20 51°12.315 2°48.271 -999 -999 -999 -999
2007-10-17 14:25:19 51°12.422 2°48.569 -999 -999 -999 -999
2007-10-17 14:26:19 51°12.531 2°48.872 -999 -999 -999 -999
2007-10-17 14:27:20 51°12.641 2°49.182 -999 -999 -999 -999
2007-10-17 14:28:19 51°12.749 2°49.475 -999 -999 -999 -999
2007-10-17 14:29:20 51°12.861 2°49.786 -999 -999 -999 -999
2007-10-17 14:30:20 51°12.974 2°50.086 -999 -999 -999 -999
2007-10-17 14:31:20 51°13.083 2°50.392 -999 -999 -999 -999
2007-10-17 14:32:20 51°13.194 2°50.697 -999 -999 -999 -999
2007-10-17 14:33:20 51°13.307 2°51 -999 -999 -999 -999
2007-10-17 14:34:20 51°13.418 2°51.302 -999 -999 -999 -999
2007-10-17 14:35:20 51°13.53 2°51.606 -999 -999 -999 -999
2007-10-17 14:36:20 51°13.644 2°51.909 -999 -999 -999 -999
2007-10-17 14:37:21 51°13.757 2°52.216 -999 -999 -999 -999
2007-10-17 14:38:21 51°13.873 2°52.518 -999 -999 -999 -999
2007-10-17 14:39:21 51°13.99 2°52.82 -999 -999 -999 -999
2007-10-17 14:40:21 51°14.1 2°53.124 -999 -999 -999 -999
2007-10-17 14:41:20 51°14.207 2°53.43 -999 -999 -999 -999
2007-10-17 14:42:19 51°14.304 2°53.74 -999 -999 -999 -999
2007-10-17 14:43:19 51°14.356 2°54.084 -999 -999 -999 -999
2007-10-17 14:44:19 51°14.393 2°54.432 -999 -999 -999 -999
2007-10-17 14:45:19 51°14.406 2°54.782 -999 -999 -999 -999
2007-10-17 14:46:19 51°14.338 2°55.102 -999 -999 -999 -999
2007-10-17 14:47:19 51°14.208 2°55.332 -999 -999 -999 -999
2007-10-17 14:48:24 51°14.097 2°55.434 -999 -999 -999 -999
2007-10-17 14:49:23 51°14.033 2°55.482 -999 -999 -999 -999
2007-10-17 14:50:24 51°13.97 2°55.529 -999 -999 -999 -999
2007-10-17 14:51:24 51°13.901 2°55.578 -999 -999 -999 -999
2007-10-17 14:52:23 51°13.825 2°55.633 -999 -999 -999 -999
2007-10-17 14:53:23 51°13.747 2°55.709 -999 -999 -999 -999
2007-10-17 14:54:29 51°13.678 2°55.844 -999 -999 -999 -999
2007-10-17 14:55:29 51°13.636 2°55.952 -999 -999 -999 -999
2007-10-17 14:56:29 51°13.61 2°56.035 -999 -999 -999 -999
2007-10-17 14:57:29 51°13.601 2°56.082 -999 -999 -999 -999
2007-10-17 14:58:29 51°13.597 2°56.093 -999 -999 -999 -999
2007-10-17 14:59:29 51°13.596 2°56.096 -999 -999 -999 -999
2007-10-17 15:00:29 51°13.597 2°56.094 -999 -999 -999 -999